Regional Weather Roundup
Issued by NWS Jackson, KY

Home | Current Version | Previous Version | Text Only | Print | Product List | Glossary On
Versions: 1 2 3 4 5 6 7 8 9 10 11 12 13 14 15 16 17 18 19 20 21 22 23 24 25 26 27 28 29 30 31 32 33 34 35 36 37 38 39 40 41 42 43 44 45 46 47 48 49 50
000
ASUS43 KJKL 300319
RWRJKL

EAST KENTUCKY HOURLY WEATHER ROUNDUP
NATIONAL WEATHER SERVICE JACKSON KY
1000 PM EST THU JAN 29 2015

NOTE: "FAIR" INDICATES FEW OR NO CLOUDS BELOW 12,000 FEET WITH
NO SIGNIFICANT WEATHER AND/OR OBSTRUCTIONS TO VISIBILITY.

* THESE REPORTS ARE NOT UNDER NWS QUALITY CONTROL AND MAY NOT
  REPORT WEATHER SUCH AS PRECIPITATION AND FOG.

KYZ079-080-083-085-087-088-110-112-115-119-120-300400
...EASTERN KENTUCKY...

CITY           SKY/WX    TMP DP  RH WIND       PRES   REMARKS
JACKSON        CLOUDY    37  29  72 NW9       30.13R WCI  30
LONDON         CLOUDY    39  28  64 NW12G21   30.17R WCI  32
SOMERSET*      CLOUDY    36  30  80 NW9G21    30.22R WCI  29
MONTICELLO*    CLOUDY    38  33  82 W17       30.25R WCI  28
MIDDLESBORO*   DRIZZLE   40  36  84 NW12      30.16R WCI  33
HARLAN APT*    CLOUDY    37  34  87 W12       30.13R WCI  30
BLACK MTN*       N/A     30  30 100 N7          N/A  WCI  23
PIKEVILLE APT* CLOUDY    37  32  81 W13G23    30.10R WCI  29
BIG SANDY*     CLOUDY    38  32  79 W8G17     30.11R WCI  32
MOREHEAD APT*  LGT SNOW  34  32  93 W10G18    30.18R VSB 3/4 WCI  26
ASHLAND*       PTCLDY    37  34  87 NW7       30.11R WCI  32
$$

KYZ035-036-041-042-044-050-067-078-099-300400
...CENTRAL KENTUCKY...

CITY           SKY/WX    TMP DP  RH WIND       PRES   REMARKS
MT STERLING*   CLOUDY    34  34 100 NW10G17   30.18R FOG     WCI  26
FLEMING/MASON* CLOUDY    33  30  88 NW16      30.16R WCI  23
DANVILLE*      CLOUDY    34  32  93 NW9G16    30.21R WCI  26
RICHMOND*      CLOUDY    36  32  87 W14G23    30.18R WCI  27
LEXINGTON      CLOUDY    34  29  82 NW12G23   30.19R WCI  25
FRANKFORT      CLOUDY    34  30  85 NW7       30.21R FOG     WCI  28
$$

KYZ091>093-OHZ055-061-077-WVZ005-015-034-035-042-300400
...SOUTHERN OHIO/WEST VIRGINIA...

CITY           SKY/WX    TMP DP  RH WIND       PRES   REMARKS
COVINGTON      CLOUDY    34  29  82 NW15G21   30.16R WCI  24
COLUMBUS       LGT SNOW  32  30  93 NW14      30.05R VSB 1   WCI  22
DAYTON         LGT SNOW  33  31  92 NW16G24   30.11R FOG     WCI  23
WILMINGTON     LGT SNOW  32  28  85 W14       30.10R FOG     WCI  22
HUNTINGTON     CLOUDY    37  31  78 NW13G20   30.10R WCI  29
CHARLESTON     CLOUDY    39  33  79 NW9G22    30.05R WCI  33
PINEVILLE*     MIX PCPN  43  41  93 MISG      30.06R
BECKLEY        LGT RAIN  38  34  85 NW15G26   29.97R FOG     WCI  29
BLUEFIELD      CLOUDY    46  32  58 W14G20    29.95S
$$

VAZ002-007-008-TNZ017-027-036-066-071-300400
...SOUTHWEST VIRGINIA/EAST TENNESSEE...

CITY           SKY/WX    TMP DP  RH WIND       PRES   REMARKS
WISE*          RAIN      37  37 100 W13       30.05R WCI  29
JONESVILLE*    LGT RAIN  41  37  87 NW9G20    30.11R
ABINGDON*      CLOUDY    47  34  60 W7        29.99F
BRISTOL        CLOUDY    49  36  61 W9        30.01F
KNOXVILLE      CLOUDY    49  39  68 W20G25    30.09R
OAK RIDGE      LGT RAIN  48  38  68 NW9G16    30.14R
CROSSVILLE     CLOUDY    37  31  78 NW10G21   30.20R WCI  30
NASHVILLE      CLOUDY    41  31  67 N13G22    30.30R
$$

...KEY TO REMARKS...
VSB - VISIBILITY IN MILES
WCI - WIND CHILL INDEX
HX  - HEAT INDEX

$$



USA.gov is the U.S. government's official web portal to all federal, state and local government web resources and services.